Regional Weather Roundup
Issued by NWS Newport/Morehead, NC

Current Version | Previous Version | Text Only | Print | Product List | Glossary On
Versions: 1 2 3 4 5 6 7 8 9 10 11 12 13 14 15 16 17 18 19 20 21 22 23 24 25 26 27 28 29 30 31 32 33 34 35 36 37 38 39 40 41 42 43 44 45 46 47 48 49 50
000
ASUS42 KMHX 011713
RWRMHX
WEATHER ROUNDUP FOR EASTERN NORTH CAROLINA
NATIONAL WEATHER SERVICE NEWPORT/MOREHEAD CITY NC
1200 PM EST WED MAR 01 2017

NOTE: "FAIR" INDICATES FEW OR NO CLOUDS BELOW 12,000 FEET
WITH NO SIGNIFICANT WEATHER AND/OR OBSTRUCTIONS TO VISIBILITY

NCZ015>017-031-032-045>047-102-103-011800-
NORTH COAST

CITY           SKY/WX    TMP DP  RH WIND       PRES   REMARKS
EDENTON        CLOUDY    78  65  64 SW21G31   29.91F
ELIZABETH CITY CLOUDY    75  65  70 S23G30    29.90F
KITTY HAWK     NOT AVBL
MANTEO         CLOUDY    72  64  76 SW26G39   29.94F

$$

NCZ045>047-081-094-103-104-011800-
CENTRAL COAST

CITY           SKY/WX    TMP DP  RH WIND       PRES   REMARKS
FRISCO         MOSUNNY   75  66  73 SW18G29   30.01F HAZE

$$

NCZ095-097-098-100-101-011800-
SOUTHERN COAST

CITY           SKY/WX    TMP DP  RH WIND       PRES   REMARKS
BEAUFORT       CLOUDY    72  66  81 S20       30.03F
CEDAR ISLAND   NOT AVBL
JACKSONVILLE   NOT AVBL
PINEY ISLAND   CLOUDY   N/A N/A N/A SW23G40   30.00F
WILMINGTON     CLOUDY    74  66  76 SW22G35   30.03F


$$

NCZ011>013-027>030-043-044-078>080-089-090>093-098-011800-
COASTAL PLAIN

CITY           SKY/WX    TMP DP  RH WIND       PRES   REMARKS
AHOSKIE        NOT AVBL
CLINTON        CLOUDY    77  63  62 SW14G26   29.98F
ELIZABETHTOWN  PTSUNNY   79  63  58 SW18G26   29.99F
GOLDSBORO      CLOUDY    78  64  61 SW18G32   29.92F
GREENVILLE     PTSUNNY   79  63  57 SW18G33   29.95F
HAVELOCK       CLOUDY    74  66  76 SW26G39   30.02F
KENANSVILLE    CLOUDY    79  63  57 SW14G31   29.97F
KINSTON        CLOUDY    79  61  53 SW20G32   29.96F
NEW BERN       PTSUNNY   77  66  68 SW21G35   30.00F
RICHLANDS      PTSUNNY   79  66  64 SW24G31   29.99F
ROCKY MOUNT    PTSUNNY   77  62  59 SW23G36   29.93F
WASHINGTON     CLOUDY    78  64  62 SW24G30   29.94F
WHITEVILLE     PTSUNNY   79  63  58 SW21G28   30.01F

$$

AMZ130-135-150-152-154-156-158-170-250-252-270-ANZ085-086-088-633-658-670-011800-
MARINE OBSERVATIONS

STATION/POSITION TIME  TEMP    WIND        PRES    WAVE   SWELL
                       AIR SEA DIR/SP/G            HT/PER HT/PER
                 (UTC) (F)     (DEG/KT/KT) (MB)    (FT/S) (FT/S)
CHESAPEAKE LIGHT NOT AVBL
64 E VA BEACH    1650   59 51  200/ 21/ 25 1013.1    7/ 8   3/ 8
DUCK             1648   71 48  200/ 20/ 27 1012.7
2 E DUCK         1630      50                N/A     4/ 7
OREGON INLET     1642   65 62  190/ 25/ 30 1014.6
13E OREGON INLT  NOT AVBL
HATTERAS CG      1648   72 65  210/ 16/ 25 1016.0
DIAMOND BUOY     1650   74 74  210/ 27/ 33 1016.2    8/ 7
CAPE LOOKOUT     1700   69     200/ 17/ 22 1016.9
BEAUFORT LAB     1648   69 63  200/ 17/ 24 1016.1
30 SE NEW RVR IN 1608   68     210/ 17/ 23 1018.1
30 SE NEW RVR IN 1643      65                N/A     6/ 6
27 SE WRIGHTSVLE 1608   68 62  190/ 16/ 19 1018.1
5 SE WRIGHTSVLE  1608   63 59  200/ 10/ 17 1018.2
225 S CAPE HAT   1650   71 71  170/ 16/ 19 1022.1    4/ 6   2/ 8
41 SE CHARLESTON 1650   72 69  220/ 19/ 23 1018.7    4/ 7   2/11

$$



USA.gov is the U.S. government's official web portal to all federal, state and local government web resources and services.